Weather History for LSGS - November, 2012

Change the Weather History Date:

Friday, November 16, 2012

  Actual Average Record
Temperature  
Mean Temperature 41 °F -  
Max Temperature 51 °F 14 °F - ()
Min Temperature 31 °F 6 °F - ()
Degree Days  
Heating Degree Days 24    
Moisture  
Dew Point 31 °F    
Average Humidity 67    
Maximum Humidity 87    
Minimum Humidity 35    
Precipitation  
Precipitation 0.00 in - - ()
Sea Level Pressure  
Sea Level Pressure 30.11 in    
Wind  
Wind Speed 2 mph ()    
Max Wind Speed 10 mph    
Max Gust Speed -    
Visibility 17.5 miles    
Events      
T = Trace of Precipitation, MM = Missing Value Source: Averaged Metar Reports

Daily Weather History Graph

Daily Weather History Graph

Search for Another Location

Airport or City:

Trip Planner

Search our weather history database for the weather conditions in past years. The results will help you decide how hot, cold, wet, or windy it might be!

Date:

Astronomy

Nov. 16, 2012 Rise Set
Actual Time 7:33 AM CET 4:57 PM CET
Civil Twilight 7:00 AM CET 5:29 PM CET
Nautical Twilight 6:24 AM CET 6:06 PM CET
Astronomical Twilight 5:48 AM CET 6:41 PM CET
Moon 10:16 AM CET (11/16) 7:35 PM CET (11/16)
Length of Visible Light 10h 28m
Length of Day
9h 23m
Waxing Crescent, 9% of the Moon is Illuminated
Nov 16
Waxing Crescent
Nov 20
First Quarter
Nov 28
Full
Dec 6
Last Quarter
Dec 13
New

Hourly Weather History & Observations

Time (CET) Temp. Windchill Dew Point Humidity Pressure Visibility Wind Dir Wind Speed Gust Speed Precip Events Conditions
12:00 AM 34 °F - 31 °F 83% 30.24 in - Calm Calm - -  
1:00 AM 33 °F - 30 °F 82% 30.23 in - West 1.2 mph - -  
2:00 AM 33 °F - 29 °F 82% 30.22 in - East 1.2 mph - -  
3:00 AM 34 °F - 30 °F 78% 30.22 in - East 2.3 mph - -  
5:00 AM 31 °F - 28 °F 82% 30.22 in - ENE 3.5 mph - -  
6:00 AM 33 °F - 29 °F 79% 30.21 in - East 3.5 mph - -  
7:00 AM 33 °F - 29 °F 77% 30.22 in 16 mi North 1.2 mph - -  
7:20 AM 32.0 °F 28.7 °F 28.4 °F 87% 30.12 in - ENE 3.5 mph - N/A   Clear
7:50 AM 32.0 °F 28.7 °F 28.4 °F 87% 30.12 in - ENE 3.5 mph - N/A   Clear
8:00 AM 31 °F - 28 °F 81% 30.22 in - East 2.3 mph - -  
8:20 AM 33.8 °F 30.8 °F 28.4 °F 81% 30.12 in - ESE 3.5 mph - N/A   Clear
8:50 AM 32.0 °F - 28.4 °F 87% 30.15 in - Calm Calm - N/A   Clear
9:00 AM 32 °F - 29 °F 82% 30.22 in - Calm Calm - -  
9:20 AM 32.0 °F - 28.4 °F 87% 30.15 in - Variable 1.2 mph - N/A   Clear
9:50 AM 33.8 °F - 28.4 °F 81% 30.12 in - Variable 2.3 mph - N/A   Clear
10:20 AM 35.6 °F - 30.2 °F 81% 30.12 in - Calm Calm - N/A   Clear
10:50 AM 39.2 °F - 30.2 °F 70% 30.12 in - Variable 1.2 mph - N/A   Clear
11:00 AM 41 °F - 31 °F 56% 30.17 in - East 2.3 mph - -  
11:20 AM 42.8 °F 41.1 °F 32.0 °F 66% 30.12 in - East 3.5 mph - N/A   Clear
11:50 AM 46.4 °F - 30.2 °F 53% 30.09 in - Variable 1.2 mph - N/A   Clear
12:00 PM 46 °F - 33 °F 49% 30.12 in - SW 1.2 mph - -  
12:20 PM 48.2 °F - 30.2 °F 50% 30.06 in - Calm Calm - N/A   Clear
12:50 PM 50.0 °F - 30.2 °F 47% 30.06 in - Variable 2.3 mph - N/A   Clear
1:00 PM 49 °F - 30 °F 35% 30.08 in 19 mi SW 4.6 mph - -  
1:20 PM 48.2 °F - 28.4 °F 46% 30.06 in - SW 6.9 mph - N/A   Clear
1:50 PM 48.2 °F - 32.0 °F 54% 30.06 in - WSW 10.4 mph - N/A   Clear
2:00 PM 50 °F - 31 °F 37% 30.06 in - WSW 6.9 mph - -  
2:20 PM 50.0 °F - 30.2 °F 47% 30.04 in - WSW 5.8 mph - N/A   Clear
2:50 PM 50.0 °F - 30.2 °F 47% 30.04 in - SW 6.9 mph - N/A   Clear
3:00 PM 51 °F - 32 °F 36% 30.05 in - SW 4.6 mph - -  
3:20 PM 50.0 °F - 32.0 °F 50% 30.04 in - SW 5.8 mph - N/A   Clear
3:50 PM 50.0 °F - 35.6 °F 58% 30.04 in - WSW 8.1 mph - N/A   Clear
4:20 PM 48.2 °F - 35.6 °F 62% 30.04 in - WSW 5.8 mph - N/A   Clear
4:50 PM 46.4 °F 44.3 °F 35.6 °F 66% 30.04 in - West 4.6 mph - N/A   Clear
5:00 PM 44 °F - 35 °F 61% 30.09 in - West 1.2 mph - -  
5:20 PM 42.8 °F - 32.0 °F 66% 30.04 in - Variable 2.3 mph - N/A   Clear
5:50 PM 41.0 °F - 32.0 °F 70% 30.06 in - Calm Calm - N/A   Clear
6:00 PM 42 °F - 32 °F 58% 30.10 in - East 1.2 mph - -  
6:20 PM 41.0 °F - 32.0 °F 70% 30.06 in - Variable 1.2 mph - N/A   Clear
6:50 PM 39.2 °F - 32.0 °F 75% 30.06 in - Variable 1.2 mph - N/A   Clear
7:00 PM 39 °F - 32 °F 68% 30.12 in - Calm Calm - -  
7:20 PM 39.2 °F - 32.0 °F 75% 30.06 in - East 2.3 mph - N/A   Clear
7:50 PM 39.2 °F - 32.0 °F 75% 30.06 in - Calm Calm - N/A   Clear
8:00 PM 37 °F - 32 °F 75% 30.13 in - Calm Calm - -  
9:00 PM 36 °F - 32 °F 81% 30.14 in - Calm Calm - -  
11:00 PM 34 °F - 30 °F 80% 30.13 in - East 1.2 mph - -